FW8920 Weather Reports


Display with metric or nautical units.
time (UTC)temp
F
wind
direction
speed
MPH
gust
MPH
rain 1hr
in
rain 24hr
in
rain mn
in
humidity
%
barometer
mb
20260507132539 54 0 0.0 4.0 0.00 0.30 0.01 74 1008.7
20260507132039 54 0 1.0 5.0 0.00 0.30 0.01 75 1008.8
20260507131545 53 0 1.0 5.0 0.00 0.30 0.01 75 1008.8
20260507131038 53 298 2.0 5.0 0.00 0.30 0.01 72 1008.8
20260507130538 53 263 0.0 4.0 0.00 0.30 0.01 75 1008.9
20260507130045 52 252 1.0 4.0 0.00 0.30 0.01 76 1008.9
20260507125538 52 305 1.0 4.0 0.00 0.30 0.01 76 1009.0
20260507125040 52 284 1.0 4.0 0.00 0.30 0.01 77 1008.8
20260507124547 52 0 1.0 4.0 0.00 0.30 0.01 77 1008.8
20260507124039 51 309 1.0 6.0 0.00 0.30 0.01 77 1008.9
20260507123539 51 313 2.0 6.0 0.00 0.30 0.01 76 1008.9
20260507123049 51 269 1.0 3.0 0.00 0.30 0.01 79 1008.9
20260507122538 51 284 0.0 2.0 0.00 0.30 0.01 79 1008.9
20260507122039 50 264 0.0 3.0 0.00 0.30 0.01 81 1008.9
20260507121550 49 0 0.0 7.0 0.00 0.30 0.01 83 1009.0
20260507121040 49 0 1.0 7.0 0.00 0.30 0.01 82 1009.0
20260507120538 49 329 1.0 8.0 0.00 0.30 0.01 81 1008.8
20260507120059 48 0 1.0 8.0 0.00 0.30 0.01 83 1008.9
20260507115539 48 277 0.0 5.0 0.00 0.30 0.01 84 1008.9
20260507115040 48 322 0.0 5.0 0.00 0.30 0.01 86 1008.9
20260507114546 48 159 0.0 2.0 0.00 0.30 0.01 85 1008.9
20260507114038 48 0 0.0 2.0 0.00 0.30 0.01 86 1008.9
20260507113539 47 282 0.0 3.0 0.00 0.30 0.01 86 1008.8
20260507113050 47 288 0.0 3.0 0.00 0.30 0.01 86 1008.7
20260507112538 47 313 1.0 3.0 0.00 0.30 0.01 87 1008.6
20260507112038 47 352 0.0 2.0 0.00 0.30 0.01 88 1008.6
20260507111551 47 0 0.0 2.0 0.00 0.30 0.01 88 1008.7
20260507111039 47 309 0.0 2.0 0.00 0.30 0.01 89 1008.8
20260507110540 46 0 0.0 0.0 0.00 0.30 0.01 89 1008.7
20260507110056 46 0 0.0 0.0 0.00 0.30 0.01 90 1008.7
20260507105537 46 0 0.0 0.0 0.00 0.30 0.01 90 1008.5
20260507105039 46 0 0.0 0.0 0.00 0.30 0.01 90 1008.5
20260507104547 46 0 0.0 0.0 0.00 0.30 0.01 90 1008.6
20260507104039 46 0 0.0 0.0 0.00 0.30 0.01 90 1008.5
20260507103539 46 0 0.0 0.0 0.00 0.30 0.01 90 1008.5
20260507103050 46 0 0.0 0.0 0.00 0.30 0.01 90 1008.6
20260507102539 46 0 0.0 0.0 0.00 0.30 0.01 91 1008.3
20260507102042 46 0 0.0 0.0 0.00 0.30 0.01 91 1008.2
20260507101552 46 0 0.0 0.0 0.00 0.30 0.01 90 1007.9
20260507101038 46 0 0.0 0.0 0.00 0.30 0.01 90 1008.1
20260507100542 46 0 0.0 3.0 0.00 0.30 0.01 90 1008.0
20260507100054 46 0 0.0 3.0 0.00 0.30 0.01 90 1008.2
20260507095538 46 0 0.0 1.0 0.00 0.30 0.01 90 1007.9
20260507095037 46 0 0.0 1.0 0.00 0.30 0.01 90 1007.9
20260507094555 46 0 0.0 2.0 0.00 0.30 0.01 90 1008.0
20260507094039 46 0 0.0 2.0 0.00 0.30 0.01 90 1008.2
20260507093539 46 0 0.0 3.0 0.00 0.30 0.01 90 1008.1
20260507093052 46 0 0.0 3.0 0.00 0.30 0.01 90 1008.0
20260507092539 46 0 0.0 2.0 0.00 0.30 0.01 90 1008.1
20260507092042 46 0 0.0 2.0 0.00 0.30 0.01 91 1008.3
20260507091549 46 0 0.0 0.0 0.00 0.30 0.01 91 1008.3
20260507091039 46 0 0.0 1.0 0.00 0.30 0.01 91 1008.1
20260507090539 46 0 0.0 2.0 0.00 0.30 0.01 91 1008.5
20260507090048 46 0 0.0 2.0 0.00 0.30 0.01 90 1008.5
20260507085538 46 0 0.0 2.0 0.00 0.30 0.01 90 1008.5
20260507085041 46 0 0.0 2.0 0.00 0.30 0.01 90 1008.6
20260507084549 46 0 0.0 2.0 0.00 0.30 0.01 90 1008.8
20260507084040 46 0 0.0 2.0 0.00 0.30 0.01 91 1008.8
20260507083538 46 0 0.0 2.0 0.00 0.30 0.01 90 1008.7
20260507083050 46 0 0.0 2.0 0.00 0.30 0.01 90 1008.3
20260507082539 46 0 0.0 2.0 0.00 0.30 0.01 90 1008.2
20260507082041 47 0 0.0 1.0 0.01 0.30 0.01 90 1008.5
20260507081548 47 0 0.0 1.0 0.01 0.30 0.01 90 1008.3
20260507081040 47 0 0.0 4.0 0.01 0.30 0.01 90 1008.1
20260507080540 47 0 0.0 4.0 0.01 0.30 0.01 90 1008.2
20260507080051 47 0 0.0 4.0 0.01 0.30 0.01 90 1008.3
20260507075540 47 0 0.0 2.0 0.01 0.30 0.01 90 1008.4
20260507075040 47 0 0.0 2.0 0.01 0.30 0.01 90 1008.2
20260507074553 47 0 0.0 1.0 0.01 0.30 0.01 90 1008.4
20260507074039 47 0 0.0 3.0 0.01 0.30 0.01 90 1008.0
20260507073540 47 0 0.0 3.0 0.01 0.30 0.01 90 1007.8
20260507073107 47 79 0.0 3.0 0.01 0.30 0.01 89 1007.9
20260507072540 47 0 0.0 4.0 0.01 0.30 0.01 88 1008.0
20260507072039 47 0 0.0 4.0 0.00 0.29 0.00 89 1008.2
20260507071546 47 306 1.0 4.0 0.00 0.29 0.00 88 1008.3
20260507071040 47 234 0.0 2.0 0.00 0.29 0.00 89 1008.2
20260507070539 47 0 1.0 2.0 0.00 0.29 0.00 89 1007.9
20260507070045 47 0 0.0 2.0 0.00 0.29 0.00 89 1007.7
20260507065540 47 0 0.0 2.0 0.00 0.29 0.00 89 1007.7
20260507065041 47 0 0.0 2.0 0.00 0.29 0.00 88 1007.6
20260507064604 47 0 0.0 1.0 0.00 0.29 0.00 88 1007.5
20260507064040 48 0 0.0 2.0 0.00 0.29 0.00 88 1007.5
20260507063540 48 0 0.0 2.0 0.00 0.29 0.00 88 1007.4
20260507063052 48 124 0.0 2.0 0.00 0.29 0.00 87 1007.3
20260507062540 48 0 0.0 2.0 0.00 0.29 0.00 88 1007.3
20260507062040 48 0 0.0 0.0 0.00 0.29 0.00 90 1007.5
20260507061546 48 0 0.0 0.0 0.00 0.29 0.00 88 1007.7
20260507061039 48 0 0.0 2.0 0.00 0.29 0.00 89 1007.9
20260507060540 48 0 0.0 2.0 0.00 0.29 0.00 89 1007.9
20260507060051 49 0 0.0 1.0 0.00 0.29 0.00 89 1007.8
20260507055540 49 0 0.0 1.0 0.00 0.29 0.00 89 1007.8
20260507055040 49 9 0.0 1.0 0.00 0.29 0.00 88 1007.8
20260507054547 49 0 0.0 2.0 0.00 0.29 0.00 89 1007.7
20260507054039 49 0 0.0 2.0 0.00 0.29 0.00 89 1007.9
20260507053539 49 0 0.0 2.0 0.00 0.29 0.00 89 1007.9
20260507053045 50 0 0.0 0.0 0.00 0.29 0.00 91 1008.1
20260507052540 50 0 0.0 0.0 0.00 0.29 0.00 90 1008.1
20260507052039 50 0 0.0 0.0 0.00 0.29 0.00 91 1008.2
20260507051551 50 0 0.0 0.0 0.00 0.29 0.00 91 1008.4
20260507051042 51 0 0.0 0.0 0.00 0.29 0.00 92 1008.3
20260507050540 51 0 0.0 0.0 0.00 0.29 0.00 92 1008.2
20260507050056 51 0 0.0 0.0 0.00 0.29 0.00 92 1008.1
20260507045540 51 0 0.0 0.0 0.00 0.29 0.00 92 1008.2
20260507045040 51 0 0.0 0.0 0.00 0.29 0.00 92 1008.5
20260507044549 51 0 0.0 0.0 0.00 0.29 0.00 92 1008.1
20260507044039 51 0 0.0 0.0 0.00 0.29 0.00 92 1008.0
20260507043540 51 0 0.0 3.0 0.01 0.29 0.00 91 1008.1
20260507043049 51 0 0.0 4.0 0.01 0.29 0.00 92 1007.9
20260507042540 51 0 0.0 4.0 0.01 0.29 0.00 91 1007.8
20260507042040 52 0 0.0 2.0 0.01 0.29 0.00 91 1007.7
20260507041548 52 0 0.0 0.0 0.01 0.29 0.00 91 1007.8
20260507041039 52 0 0.0 2.0 0.01 0.29 0.00 90 1007.7
20260507040540 52 0 0.0 2.0 0.01 0.29 0.00 90 1007.6
20260507040056 53 0 0.0 3.0 0.01 0.29 0.00 90 1007.8
20260507035539 53 172 0.0 3.0 0.01 0.29 0.29 91 1007.7
20260507035040 54 329 0.0 2.0 0.01 0.29 0.29 92 1008.1
20260507034608 54 0 0.0 2.0 0.01 0.29 0.29 92 1007.9
20260507034040 54 244 0.0 2.0 0.01 0.29 0.29 92 1007.9
20260507033539 54 268 0.0 3.0 0.00 0.28 0.28 92 1007.8
20260507033103 55 283 0.0 4.0 0.00 0.28 0.28 92 1007.5
20260507032538 55 282 1.0 4.0 0.00 0.28 0.28 91 1007.6
20260507032039 55 355 1.0 3.0 0.00 0.28 0.28 92 1007.8
20260507031548 55 245 1.0 3.0 0.00 0.28 0.28 92 1007.7
20260507031040 55 227 1.0 2.0 0.00 0.28 0.28 92 1007.6
20260507030543 55 0 0.0 2.0 0.00 0.28 0.28 92 1007.4
20260507030051 56 0 0.0 2.0 0.00 0.28 0.28 92 1007.3
20260507025539 56 190 0.0 2.0 0.00 0.28 0.28 92 1007.3
20260507025039 56 0 0.0 3.0 0.00 0.28 0.28 92 1007.1
20260507024553 56 0 0.0 3.0 0.00 0.28 0.28 91 1006.9
20260507024043 56 299 0.0 3.0 0.00 0.28 0.28 91 1006.9
20260507023542 57 248 1.0 5.0 0.00 0.28 0.28 91 1006.9
20260507023047 57 321 1.0 5.0 0.00 0.28 0.28 91 1006.9
20260507022540 57 302 1.0 6.0 0.00 0.28 0.28 91 1007.0
20260507022039 58 275 1.0 7.0 0.00 0.28 0.28 91 1007.1
20260507021558 58 296 2.0 7.0 0.00 0.28 0.28 93 1007.2
20260507021044 58 225 1.0 4.0 0.00 0.28 0.28 94 1007.2
20260507020540 58 312 1.0 4.0 0.00 0.28 0.28 94 1006.9
20260507020047 58 0 1.0 3.0 0.00 0.28 0.28 94 1006.9
20260507015539 58 280 0.0 3.0 0.00 0.28 0.28 94 1006.9
20260507015040 58 0 0.0 3.0 0.00 0.28 0.28 94 1006.7
20260507014549 58 246 0.0 3.0 0.00 0.28 0.28 94 1006.5
20260507014040 58 0 1.0 3.0 0.00 0.28 0.28 94 1006.5
20260507013539 58 239 0.0 3.0 0.00 0.28 0.28 94 1006.7
20260507013058 58 325 1.0 3.0 0.00 0.28 0.28 94 1006.8
20260507012539 58 0 0.0 4.0 0.00 0.28 0.28 94 1006.3
20260507012040 58 0 0.0 4.0 0.00 0.28 0.28 94 1006.3
20260507011545 58 193 1.0 4.0 0.00 0.28 0.28 94 1006.4
20260507011044 58 0 0.0 4.0 0.01 0.28 0.28 94 1006.6
20260507010539 58 233 0.0 4.0 0.01 0.28 0.28 94 1006.6
20260507010053 58 254 0.0 4.0 0.01 0.28 0.28 94 1006.8
20260507005541 57 295 0.0 2.0 0.01 0.28 0.28 94 1006.7
20260507005040 58 227 0.0 3.0 0.01 0.28 0.28 94 1006.8
20260507004550 58 0 0.0 3.0 0.01 0.28 0.28 94 1006.8
20260507004040 57 326 0.0 6.0 0.01 0.28 0.28 94 1006.7
20260507003541 57 213 1.0 6.0 0.01 0.28 0.28 94 1006.6
20260507003047 57 0 0.0 3.0 0.01 0.28 0.28 94 1006.7
20260507002540 57 0 1.0 4.0 0.01 0.28 0.28 94 1006.7
20260507002040 57 0 0.0 4.0 0.01 0.28 0.28 94 1006.6
20260507001607 57 201 0.0 6.0 0.01 0.28 0.28 94 1006.6
20260507001039 57 196 2.0 6.0 0.00 0.27 0.27 94 1006.5
20260507000540 57 235 0.0 6.0 0.00 0.27 0.27 94 1006.5
20260507000052 57 200 0.0 6.0 0.00 0.27 0.27 93 1006.6
20260506235539 57 204 2.0 5.0 0.00 0.27 0.27 94 1006.4
20260506235040 57 190 1.0 3.0 0.01 0.27 0.27 93 1006.5
20260506234558 57 228 0.0 2.0 0.01 0.27 0.27 94 1006.5
20260506234039 58 223 1.0 3.0 0.01 0.27 0.27 94 1006.5
20260506233541 58 0 0.0 5.0 0.02 0.27 0.27 93 1006.4
20260506233053 58 223 0.0 5.0 0.03 0.27 0.27 93 1006.3
20260506232539 58 218 0.0 2.0 0.04 0.27 0.27 94 1006.4
20260506232040 58 238 0.0 4.0 0.05 0.27 0.27 94 1006.5
20260506231554 58 0 1.0 4.0 0.05 0.27 0.27 94 1006.5
20260506231039 58 0 0.0 3.0 0.05 0.27 0.27 94 1006.2
20260506230540 58 257 0.0 3.0 0.05 0.27 0.27 94 1006.4
20260506230050 58 0 0.0 3.0 0.06 0.27 0.27 94 1006.4
20260506225543 58 183 0.0 3.0 0.06 0.27 0.27 94 1006.2
20260506225041 58 193 1.0 3.0 0.05 0.26 0.26 93 1006.5
20260506224606 58 0 0.0 3.0 0.06 0.26 0.26 93 1006.5
20260506224039 58 202 1.0 4.0 0.06 0.26 0.26 93 1006.6
20260506223540 58 186 0.0 4.0 0.06 0.25 0.25 93 1006.6
20260506223054 58 254 1.0 4.0 0.06 0.24 0.24 93 1006.6
20260506222541 58 198 1.0 4.0 0.06 0.23 0.23 93 1006.6
20260506222040 58 0 0.0 3.0 0.06 0.22 0.22 93 1006.7
20260506221550 58 0 0.0 5.0 0.06 0.22 0.22 93 1006.6
20260506221039 58 200 1.0 5.0 0.08 0.22 0.22 93 1006.6
20260506220539 58 235 0.0 3.0 0.09 0.22 0.22 93 1006.7
20260506220101 58 222 0.0 4.0 0.08 0.21 0.21 93 1006.7
20260506215541 58 0 1.0 4.0 0.08 0.21 0.21 93 1006.8
20260506215041 58 0 0.0 3.0 0.07 0.20 0.20 93 1006.7
20260506214551 58 217 1.0 6.0 0.07 0.20 0.20 93 1006.8
20260506214039 58 0 1.0 6.0 0.07 0.20 0.20 92 1006.8
20260506213539 58 242 1.0 3.0 0.06 0.19 0.19 93 1006.7
20260506213049 58 0 0.0 3.0 0.05 0.18 0.18 93 1006.8
20260506212540 58 205 0.0 5.0 0.05 0.17 0.17 92 1006.9
20260506212040 58 0 1.0 5.0 0.04 0.16 0.16 92 1006.9
20260506211554 58 200 0.0 3.0 0.04 0.16 0.16 92 1006.9
20260506211040 58 198 1.0 5.0 0.03 0.14 0.14 92 1007.0
20260506210540 58 193 1.0 5.0 0.02 0.13 0.13 91 1007.1
20260506210054 58 173 1.0 5.0 0.03 0.13 0.13 91 1007.1
20260506205539 58 157 1.0 5.0 0.03 0.13 0.13 92 1007.0
20260506205039 58 254 1.0 4.0 0.03 0.13 0.13 92 1007.1
20260506204548 58 0 1.0 5.0 0.04 0.13 0.13 92 1007.1
20260506204039 59 257 1.0 5.0 0.04 0.13 0.13 91 1007.2
20260506203540 59 171 1.0 4.0 0.05 0.13 0.13 92 1007.2
20260506203058 59 188 1.0 4.0 0.05 0.13 0.13 91 1007.2
20260506202541 59 272 1.0 4.0 0.04 0.12 0.12 91 1007.2
20260506202039 59 202 0.0 4.0 0.04 0.12 0.12 92 1007.5
20260506201551 59 232 1.0 4.0 0.03 0.11 0.11 91 1007.2
20260506201040 59 238 1.0 3.0 0.03 0.11 0.11 91 1007.4
20260506200539 59 169 0.0 4.0 0.04 0.11 0.11 91 1007.3
20260506200051 59 0 0.0 5.0 0.03 0.10 0.10 91 1007.5
20260506195540 59 181 1.0 5.0 0.03 0.10 0.10 91 1007.5
20260506195041 59 227 1.0 4.0 0.03 0.10 0.10 91 1007.4
20260506194553 59 168 0.0 4.0 0.03 0.09 0.09 91 1007.4
20260506194040 60 239 2.0 5.0 0.03 0.09 0.09 90 1007.5
20260506193539 60 167 2.0 5.0 0.02 0.08 0.08 90 1007.6
20260506193052 60 170 1.0 4.0 0.03 0.08 0.08 91 1007.5
20260506192540 60 175 1.0 4.0 0.04 0.08 0.08 90 1007.5
20260506192040 60 186 1.0 4.0 0.05 0.08 0.08 90 1007.6
20260506191548 60 195 1.0 5.0 0.05 0.08 0.08 90 1007.5
20260506191040 60 171 2.0 5.0 0.06 0.08 0.08 90 1007.6
20260506190542 60 219 1.0 6.0 0.05 0.07 0.07 90 1007.6
20260506190052 60 210 2.0 6.0 0.05 0.07 0.07 90 1007.5
20260506185539 60 221 0.0 3.0 0.06 0.07 0.07 90 1007.7
20260506185040 60 213 0.0 4.0 0.07 0.07 0.07 90 1007.6
20260506184551 61 0 0.0 5.0 0.06 0.06 0.06 89 1007.3
20260506184040 61 219 1.0 5.0 0.06 0.06 0.06 88 1007.5
20260506183543 61 140 1.0 5.0 0.06 0.06 0.06 88 1007.7
20260506183058 61 0 1.0 5.0 0.05 0.05 0.05 87 1007.8
20260506182540 62 206 1.0 5.0 0.04 0.04 0.04 87 1007.8
20260506182039 62 190 0.0 2.0 0.03 0.03 0.03 86 1008.2
20260506181604 62 0 0.0 2.0 0.03 0.03 0.03 86 1008.2
20260506181040 63 223 0.0 3.0 0.02 0.02 0.02 85 1008.3
20260506180541 63 0 0.0 3.0 0.02 0.02 0.02 83 1008.1
20260506180054 64 0 1.0 4.0 0.01 0.01 0.01 82 1008.3
20260506175540 64 0 0.0 4.0 0.01 0.01 0.01 80 1008.5
20260506175039 65 313 1.0 4.0 0.00 0.00 0.00 78 1008.5
20260506174545 66 285 1.0 9.0 0.00 0.00 0.00 74 1008.5
20260506174040 67 237 2.0 9.0 0.00 0.00 0.00 72 1008.6
20260506173542 68 259 1.0 8.0 0.00 0.00 0.00 69 1008.5
20260506173107 69 157 3.0 8.0 0.00 0.00 0.00 67 1008.2
20260506172541 69 178 2.0 6.0 0.00 0.00 0.00 67 1008.1
20260506172041 69 207 1.0 5.0 0.00 0.00 0.00 66 1008.1
20260506171553 69 199 2.0 9.0 0.00 0.00 0.00 65 1008.1
20260506171043 69 132 3.0 9.0 0.00 0.00 0.00 64 1008.0
20260506170541 69 217 1.0 7.0 0.00 0.00 0.00 65 1008.0
20260506170059 69 155 3.0 9.0 0.00 0.00 0.00 64 1008.1
20260506165543 69 212 3.0 10.0 0.00 0.00 0.00 63 1008.2
20260506165041 70 183 3.0 10.0 0.00 0.00 0.00 62 1008.1
20260506164552 70 253 2.0 7.0 0.00 0.00 0.00 62 1008.3
20260506164040 70 213 2.0 6.0 0.00 0.00 0.00 62 1008.2
20260506163544 70 269 2.0 9.0 0.00 0.00 0.00 62 1008.2
20260506163047 69 192 3.0 9.0 0.00 0.00 0.00 63 1008.2
20260506162542 69 181 1.0 5.0 0.00 0.00 0.00 64 1008.4
20260506162042 69 246 1.0 4.0 0.00 0.00 0.00 65 1008.5
20260506161550 69 211 1.0 5.0 0.00 0.00 0.00 64 1008.6
20260506161040 69 194 1.0 6.0 0.00 0.00 0.00 64 1008.8
20260506160540 69 210 1.0 7.0 0.00 0.00 0.00 64 1008.9
20260506155541 69 248 2.0 10.0 0.00 0.00 0.00 64 1009.1
20260506155041 69 207 4.0 10.0 0.00 0.00 0.00 64 1009.1
20260506154551 69 243 1.0 6.0 0.00 0.00 0.00 65 1009.2
20260506154043 68 161 1.0 6.0 0.00 0.00 0.00 64 1009.2
20260506153540 68 216 1.0 8.0 0.00 0.00 0.00 66 1009.3
20260506153047 68 253 2.0 9.0 0.00 0.00 0.00 65 1009.4
20260506152540 68 184 3.0 9.0 0.00 0.00 0.00 65 1009.3
20260506152041 68 200 1.0 8.0 0.00 0.00 0.00 66 1009.3
20260506151547 68 190 2.0 8.0 0.00 0.00 0.00 65 1009.4
20260506151040 68 309 1.0 7.0 0.00 0.00 0.00 66 1009.5
20260506150542 68 194 2.0 9.0 0.00 0.00 0.00 66 1009.6
20260506150051 68 241 1.0 10.0 0.00 0.00 0.00 67 1009.6
20260506145541 68 351 2.0 10.0 0.00 0.00 0.00 66 1009.7
20260506145040 69 142 2.0 6.0 0.00 0.00 0.00 67 1009.6
20260506144552 68 248 1.0 6.0 0.00 0.00 0.00 68 1009.6
20260506144040 68 240 2.0 8.0 0.00 0.00 0.00 68 1009.5
20260506143539 67 189 3.0 9.0 0.00 0.00 0.00 68 1009.8
20260506143051 67 0 3.0 9.0 0.00 0.00 0.00 69 1009.8
20260506142539 67 230 2.0 9.0 0.00 0.00 0.00 69 1009.7
20260506142042 67 207 2.0 10.0 0.00 0.00 0.00 69 1009.7
20260506141545 67 235 2.0 10.0 0.00 0.00 0.00 70 1009.6
20260506141039 67 250 2.0 6.0 0.00 0.00 0.00 70 1009.6
20260506140542 66 211 2.0 5.0 0.00 0.00 0.00 70 1009.7
20260506140049 66 122 0.0 7.0 0.00 0.00 0.00 71 1009.5
20260506135538 66 144 2.0 7.0 0.00 0.00 0.00 71 1009.5
20260506135040 66 171 2.0 8.0 0.00 0.00 0.00 71 1009.4
20260506134551 66 223 3.0 8.0 0.00 0.00 0.00 71 1009.3
20260506134040 66 9 2.0 6.0 0.00 0.00 0.00 72 1009.7
20260506133541 66 175 2.0 6.0 0.00 0.00 0.00 72 1009.7
20260506133045 66 198 1.0 6.0 0.00 0.00 0.00 73 1009.5